Simultaneous Nadir Overpasses (SNOs) Predictions

Prediction of SNOs between GOES-16 and AQUA Satellite Orbit:

Table of predicted SNOs for the next 14.0 days since TLE Epoch: 3/17/2018
Index Date Time (GOES-16) GOES-16 Lat,Lon AQUA Lat,Lon Distance(km) Time Diff (sec)
1 03/18/2018 18:23:56 -0.01, -75.22 0.73, -71.68 402.45 80
2 03/19/2018 06:45:12 0.02, -75.21 0.35, -76.84 184.49 80
3 03/21/2018 06:30:21 0.01, -75.24 -0.29, -73.89 154.65 80
4 03/21/2018 18:51:44 -0.02, -75.26 -0.80, -79.08 433.55 80
5 03/23/2018 06:18:09 0.01, -75.27 -0.88, -70.92 493.97 80
6 03/23/2018 18:39:33 -0.02, -75.29 -0.20, -76.11 94.06 80
7 03/25/2018 18:30:02 -0.02, -75.32 0.46, -73.16 245.81 80
8 03/26/2018 06:51:17 0.02, -75.32 0.64, -78.32 340.55 80
9 03/28/2018 06:39:05 0.02, -75.36 0.03, -75.36 0.73 80
10 03/30/2018 06:24:14 0.02, -75.41 -0.65, -72.41 341.50 80
11 03/30/2018 18:45:37 -0.02, -75.43 -0.48, -77.59 246.21 80




NCC Satellite Simultaneous Nadir Overpasses (SNOs) Prediction Service
